Probability
0 0 0 2 2 1 0 0 0 0 0 0 0 0 0 0 0 0 0 0 0 0 0 1 2 2 1 0 0 1 1 0 0 0 0 0 0 0 0 0 0 0 0 0 0 0 0 0 0
0 0 0 1 1 0 0 0 0 0 0 0 0 0 0 0 0 0 0 0 0 0 0 0 1 1 1 1 2 3 3 1 0 0 0 0 0 0 0 0 0 0 0 0 0 0 0 0 0
0 0 0 0 0 0 0 0 0 0 0 0 0 0 0 0 0 0 0 0 0 0 0 0 0 0 1 2 4 5 5 2 1 0 0 0 0 0 0 0 0 0 0 0 0 0 0 0 0
1 1 0 0 0 0 0 0 0 0 0 0 0 1 2 1 0 0 0 0 0 0 0 0 0 0 0 1 2 3 3 2 1 0 0 0 0 0 0 0 0 0 0 0 0 0 0 0 0
1 1 0 0 0 0 0 0 0 0 0 0 1 3 4 3 1 0 0 0 0 0 0 0 0 0 0 0 0 1 1 1 0 0 0 0 0 0 0 0 0 0 0 0 0 0 0 0 0
1 0 0 0 0 0 0 0 0 0 0 0 1 3 5 3 1 0 0 0 0 0 1 1 1 0 0 0 0 0 0 0 0 0 0 0 0 0 0 0 0 0 0 0 0 0 0 0 0
0 0 0 0 0 0 0 0 0 0 0 0 1 3 6 5 3 2 1 0 0 1 2 2 1 0 0 0 0 0 0 0 0 0 0 0 0 0 0 0 0 0 0 0 0 0 0 0 0
0 0 0 0 0 0 0 0 0 0 0 0 0 3 8 10 7 4 3 2 1 2 3 3 1 1 1 0 0 0 0 0 0 0 0 0 0 0 0 0 0 0 0 0 0 0 0 0 0
0 0 0 0 0 0 0 0 0 0 0 0 0 5 15 21 18 12 8 6 5 4 5 4 3 2 1 1 1 1 0 0 0 0 0 0 0 0 0 0 0 0 0 0 0 0 0 0 0
0 0 0 0 0 0 0 0 0 0 0 0 2 12 28 36 30 20 12 9 8 7 6 5 4 2 1 1 2 1 1 1 1 0 0 0 0 0 0 0 0 0 0 0 0 0 0 0 0
0 0 0 0 0 0 0 0 0 0 0 1 7 21 39 46 37 25 18 13 10 8 7 6 5 3 1 2 3 3 2 2 2 1 0 0 0 0 0 0 0 0 0 0 0 0 0 0 0
0 0 0 0 0 0 0 0 0 0 0 1 10 27 43 47 37 27 22 18 14 12 9 8 9 7 4 4 4 3 3 3 4 3 1 0 0 0 0 0 0 0 0 0 0 0 0 0 0
0 0 0 0 0 0 0 0 0 0 0 1 10 25 39 41 33 26 24 24 22 18 14 12 13 13 10 9 7 5 5 6 6 4 2 0 0 0 0 1 1 1 0 0 0 0 0 0 0
0 0 0 0 0 0 0 0 0 0 0 0 6 17 27 32 31 28 27 28 26 22 17 14 16 17 15 13 11 10 9 9 7 5 3 1 0 0 0 1 2 2 1 0 0 0 0 0 0
0 0 0 0 0 0 0 0 0 0 0 0 2 8 18 27 32 33 31 27 25 22 19 16 15 15 14 13 13 14 13 11 8 7 5 3 0 0 0 1 2 2 1 0 0 0 0 0 0
0 0 0 0 0 0 0 0 0 0 0 0 1 5 14 25 32 34 32 27 23 23 24 20 16 14 14 13 14 17 18 16 13 10 8 5 2 1 1 1 1 1 0 0 0 0 0 0 0
0 0 0 0 0 0 0 0 0 0 0 0 2 6 14 25 32 34 33 29 26 27 28 25 22 21 21 19 19 22 24 23 21 18 14 9 4 3 3 2 1 0 0 1 2 2 1 0 0
0 0 0 0 0 0 0 0 0 0 0 0 2 6 14 23 32 36 35 32 31 32 32 30 30 31 31 28 27 27 26 25 24 23 18 12 8 6 5 3 2 1 1 3 4 3 1 0 0
0 0 0 0 0 0 0 0 0 0 0 0 1 5 13 21 29 35 35 34 37 38 37 35 35 36 37 36 35 34 29 24 22 21 18 14 11 9 6 5 4 5 4 5 5 4 3 2 1
0 0 0 0 0 0 0 0 0 0 0 0 1 3 10 20 28 33 35 36 41 43 40 36 34 35 38 39 38 37 34 26 20 18 17 15 14 10 7 7 6 7 7 5 5 6 5 4 2
0 0 0 0 0 0 0 0 0 0 0 0 1 3 9 18 25 31 36 38 40 42 40 36 33 35 39 40 37 35 34 28 20 18 20 18 16 12 9 7 6 6 5 4 5 6 6 5 4
0 0 0 0 0 0 0 0 0 0 0 0 1 3 7 11 17 25 33 39 40 38 37 36 36 36 38 38 35 33 29 23 18 19 22 22 18 14 10 8 7 5 4 3 4 5 6 7 7
0 0 0 0 0 0 0 0 0 0 1 1 1 2 5 7 11 18 26 35 37 34 33 35 37 36 35 35 34 30 24 18 15 16 19 20 17 13 9 9 10 9 5 3 3 4 6 9 9
0 0 0 0 0 0 0 0 0 0 1 1 2 3 4 7 11 16 21 28 32 30 29 31 32 30 27 28 27 25 20 16 14 13 13 12 11 9 8 9 13 14 9 5 5 5 7 8 8
0 0 0 0 0 0 0 0 0 1 1 1 3 4 6 9 14 17 20 23 25 25 22 23 25 24 21 19 18 18 17 15 13 11 9 6 5 6 6 8 13 15 12 9 9 8 7 7 7
0 0 0 0 0 0 0 0 0 1 1 2 4 6 8 11 14 16 16 18 19 17 16 18 21 21 18 13 11 11 13 12 10 8 6 3 2 3 3 5 9 12 12 11 13 13 11 9 9
0 0 0 0 0 0 0 0 1 1 2 3 4 5 6 8 10 10 11 12 12 11 12 16 19 18 15 12 9 9 9 9 6 5 4 3 1 1 1 1 4 8 10 11 13 16 16 15 13
0 0 0 0 0 0 0 0 1 2 3 3 3 3 4 4 5 6 7 9 8 8 10 14 17 15 13 12 10 8 8 6 4 4 4 3 2 1 1 1 4 7 10 11 13 16 18 16 15
0 0 0 0 0 0 0 0 1 2 3 4 3 3 3 4 6 7 7 7 6 6 9 14 16 15 14 13 11 10 7 5 4 3 4 5 3 2 2 3 4 7 9 11 12 13 14 13 13
0 0 0 0 0 0 0 1 1 2 4 5 5 4 3 6 9 9 7 6 5 5 9 14 16 16 16 16 14 11 7 5 4 3 4 4 4 3 3 3 4 6 8 9 10 11 11 11 10
Wind_Speed
9 8 5 5 7 2 9 9 7 7 6 5 5 1 2 4 5 7 10 17 18 18 19 17 13 14 14 14 14 14 14 14 14 13 13 12 12 12 12 12 12 12 12 12 13 13 13 13 13
6 4 6 6 3 6 9 7 8 8 7 6 5 2 3 6 7 10 13 17 19 18 18 16 16 14 14 14 14 13 13 13 13 13 12 12 12 11 11 12 12 12 12 12 13 13 13 13 13
5 6 6 4 2 6 8 7 7 7 6 4 4 4 5 6 7 9 13 19 18 17 16 17 16 15 15 14 13 13 13 13 12 12 12 11 11 11 11 12 12 12 12 12 13 13 13 13 13
5 6 6 4 6 6 5 5 5 6 5 3 3 6 7 6 5 10 18 19 18 16 16 18 16 15 15 14 13 13 13 13 12 12 11 11 11 11 11 11 11 12 12 12 12 12 12 12 12
6 6 5 3 6 4 2 3 3 3 3 3 3 6 8 6 8 15 18 18 17 16 16 18 16 15 15 14 13 13 12 12 12 12 11 11 11 11 11 11 11 12 12 12 12 11 11 11 11
6 6 4 4 6 4 3 3 3 2 3 3 3 6 8 7 12 16 17 16 16 16 16 17 16 15 14 14 13 13 12 12 11 11 11 10 11 11 11 11 11 11 11 11 11 10 10 10 10
6 5 1 3 6 5 4 2 3 2 3 3 3 5 9 10 13 16 16 15 15 15 15 16 16 15 14 13 13 12 12 12 11 11 11 11 11 11 10 10 11 11 10 10 10 9 9 9 9
6 5 4 4 4 5 4 2 1 2 2 4 3 3 9 13 15 15 15 14 14 13 14 14 14 14 14 13 13 12 12 11 11 11 10 11 11 10 10 10 10 10 10 9 9 9 8 8 9
6 7 4 3 2 4 2 1 2 2 4 5 2 4 11 19 18 16 15 14 13 13 12 13 14 13 12 12 13 12 12 11 11 11 11 11 9 10 10 10 10 9 9 9 8 8 8 8 9
7 6 2 2 2 2 1 3 2 5 7 7 7 9 16 19 18 18 17 17 16 15 14 12 12 12 11 9 10 9 9 10 9 8 10 7 5 5 7 12 9 9 9 9 8 7 8 7 7
6 5 0 1 3 5 4 3 3 6 5 6 9 14 19 19 18 17 16 16 16 15 14 13 12 11 11 8 8 6 5 6 7 8 8 5 6 5 6 6 8 8 9 8 9 8 5 4 3
6 5 4 4 4 6 6 4 4 7 2 2 7 16 20 20 19 18 17 15 14 15 14 13 12 11 9 8 7 6 6 6 6 7 8 6 4 4 5 4 5 6 4 4 5 4 4 2 3
9 6 5 6 7 7 7 6 5 5 1 3 9 16 19 19 18 16 15 14 13 14 14 13 12 11 9 7 6 6 6 6 7 6 7 6 5 5 5 3 3 4 4 5 4 3 4 3 4
6 7 7 7 7 5 7 6 6 3 3 6 11 15 17 17 18 16 15 15 15 15 14 12 12 11 10 8 6 5 6 5 6 6 7 7 5 5 5 5 4 4 4 4 4 4 4 4 3
7 9 9 7 7 5 7 9 7 3 5 7 10 12 14 15 16 16 16 15 15 14 14 13 13 12 11 9 9 7 6 7 6 6 7 7 6 6 5 5 5 4 4 4 4 4 4 4 4
9 11 11 7 6 5 9 9 5 3 6 7 9 11 12 13 15 14 14 14 14 13 14 14 12 13 12 10 9 7 7 7 6 6 7 8 7 7 6 5 5 5 5 5 4 5 5 4 3
11 11 9 7 5 5 9 8 2 2 6 8 9 10 11 12 13 13 13 13 13 13 13 13 13 13 12 11 9 8 7 7 6 7 7 8 8 8 7 5 4 6 5 5 5 5 4 4 3
9 9 8 7 5 5 8 7 2 3 6 8 8 9 10 12 13 12 12 12 12 13 13 13 13 13 12 9 8 7 8 8 7 7 7 8 8 8 7 6 6 7 5 5 4 3 3 3 4
6 7 7 5 2 6 7 6 4 4 6 7 7 8 9 9 10 11 12 12 12 13 13 13 13 12 10 9 9 9 9 8 8 8 9 10 9 9 8 6 7 7 6 6 6 5 6 5 3
10 10 8 5 3 6 6 7 4 3 5 5 6 7 8 8 9 10 11 12 12 13 13 13 13 13 13 10 8 7 7 7 8 7 8 10 10 9 9 9 7 8 6 7 7 6 5 4 4
12 11 8 5 4 6 8 9 7 5 4 5 5 6 7 8 10 11 12 12 12 12 12 11 12 12 12 11 8 6 6 6 6 8 8 9 11 11 10 10 8 7 8 7 7 7 8 5 5
12 8 7 6 8 7 7 8 7 6 6 6 6 6 6 7 9 10 11 12 12 12 11 11 11 12 12 12 10 11 9 8 9 7 7 9 10 11 11 10 10 9 8 7 8 8 6 6 5
8 5 8 8 9 8 8 10 5 6 6 5 5 5 5 6 7 8 9 10 10 10 11 11 11 11 11 12 12 11 10 8 6 7 8 8 9 10 11 11 10 9 8 8 8 6 8 6 6
7 7 6 8 9 11 9 9 5 4 3 2 3 4 5 5 6 6 7 8 8 9 9 9 10 10 11 11 11 11 11 10 9 9 8 8 7 8 11 11 10 10 9 8 8 8 9 7 6
12 11 8 10 9 8 5 8 3 2 0 1 1 3 4 5 5 6 7 7 8 8 8 9 10 10 10 11 11 11 11 11 11 10 9 9 8 8 10 10 9 9 9 9 9 9 8 8 8
16 15 9 7 8 6 7 7 2 3 1 1 1 3 4 5 5 6 7 7 7 8 8 8 9 8 9 10 10 10 10 8 8 10 9 9 7 8 9 10 10 10 9 10 9 8 9 7 8
15 15 12 8 6 6 6 5 4 4 3 3 3 4 5 5 5 6 7 7 7 7 8 7 8 8 8 8 8 9 9 9 8 8 8 7 7 7 9 9 9 9 9 9 9 7 8 7 8
10 12 8 9 7 8 6 7 5 6 4 4 3 4 5 6 6 6 6 6 6 6 7 7 7 7 7 7 7 7 8 9 8 8 8 7 8 7 8 9 9 9 9 9 8 7 8 8 7
11 12 10 10 8 7 5 4 3 3 3 3 4 4 5 6 6 6 6 6 6 6 6 6 6 6 6 7 7 6 7 7 8 7 8 7 7 8 8 8 8 8 8 8 8 8 7 8 7
13 13 13 10 8 8 7 3 6 3 3 3 4 5 5 5 6 6 6 6 6 6 6 6 6 6 6 7 7 6 6 6 6 7 7 7 7 8 8 8 8 8 8 7 8 8 8 8 8
Wind_Direction
200 208 231 242 237 121 75 72 70 84 83 86 113 78 39 36 14 70 116 143 141 142 138 146 142 139 136 134 133 132 132 132 132 131 129 127 124 120 119 117 115 113 112 110 109 107 107 105 105
201 216 237 243 254 94 84 74 74 68 83 113 120 107 82 71 56 104 136 142 145 143 144 147 140 141 139 136 135 134 134 134 133 132 130 128 125 123 121 118 115 113 112 111 111 111 110 107 106
212 241 264 253 64 66 82 83 86 94 113 129 111 69 48 67 102 128 139 146 147 142 142 137 147 145 143 141 139 138 137 135 134 132 132 130 127 124 121 119 118 116 114 113 113 114 112 110 109
233 231 240 243 96 69 61 89 110 125 123 117 118 99 82 66 114 133 142 150 145 145 147 140 152 148 147 146 144 142 140 138 136 135 134 132 128 125 123 121 120 118 116 115 115 115 114 114 113
245 258 232 144 97 89 91 105 149 144 116 118 121 102 94 83 112 135 147 151 150 150 146 143 154 151 151 149 147 145 143 140 138 136 135 132 130 129 127 124 122 119 118 117 117 118 117 117 117
242 246 224 127 106 106 117 149 183 159 123 127 134 115 92 111 135 146 152 156 153 152 148 141 153 154 154 153 151 149 147 144 141 139 137 134 130 128 127 127 125 123 121 121 121 121 119 118 120
272 262 200 121 118 111 86 151 203 175 164 145 137 116 116 138 142 151 154 156 155 154 148 150 157 158 157 156 155 153 151 147 143 141 140 136 131 129 128 127 127 126 126 127 126 125 123 122 123
284 263 190 155 138 103 89 157 168 221 135 115 171 144 140 148 150 153 155 159 161 159 157 157 162 159 163 161 159 157 154 150 146 145 144 139 135 134 136 142 129 132 132 132 130 126 125 127 130
258 246 187 147 127 96 91 212 136 165 146 151 126 55 120 143 152 155 159 164 166 166 164 167 162 163 169 163 153 163 160 155 155 155 151 163 163 150 159 127 131 137 138 136 133 130 131 140 141
243 241 135 47 338 351 339 277 201 190 183 172 139 113 130 148 159 165 169 171 172 173 173 171 169 166 172 163 157 172 174 164 180 159 165 173 149 147 133 120 139 143 144 144 138 139 164 193 156
236 258 348 249 293 307 288 265 221 232 210 196 175 153 154 159 167 173 176 178 175 177 178 172 172 170 176 166 168 174 172 164 175 163 169 158 156 157 149 148 153 159 167 166 153 180 187 169 128
236 242 262 274 293 288 288 275 233 239 291 64 161 159 163 169 174 179 179 180 177 181 182 177 172 175 180 176 173 177 176 171 172 164 178 166 172 167 155 162 159 167 169 164 174 176 161 156 153
230 240 247 263 271 282 278 257 256 246 221 129 147 162 171 174 178 181 179 178 179 183 183 180 176 176 179 181 188 185 183 177 171 169 177 178 175 176 162 163 167 177 160 172 187 180 165 181 181
236 250 256 257 259 252 255 244 233 229 166 160 164 171 177 178 179 178 181 182 182 184 185 180 180 180 183 185 194 190 189 182 179 179 174 187 187 173 173 177 180 181 184 181 188 181 185 202 184
247 248 241 230 230 224 245 229 223 212 179 182 180 178 178 180 181 183 183 186 187 186 183 182 182 184 189 194 198 197 194 185 188 179 177 189 195 179 192 186 189 185 184 175 196 193 201 203 197
227 234 229 193 213 206 237 236 178 172 195 195 188 179 181 184 187 187 185 186 185 184 183 184 186 185 191 199 203 203 200 190 189 185 183 191 198 192 203 201 195 182 193 191 189 203 206 203 211
214 225 220 182 192 214 237 250 161 180 207 202 195 187 185 185 191 190 189 188 186 185 184 185 190 188 192 197 200 205 200 197 195 191 191 188 197 199 207 211 193 196 203 202 210 185 215 206 216
212 220 213 207 176 231 239 249 228 204 217 212 198 194 191 193 193 189 188 188 187 188 188 189 191 191 189 194 198 203 202 200 201 200 196 191 197 203 210 209 198 206 201 204 216 183 208 229 221
256 241 225 204 183 247 241 247 240 207 212 216 207 199 199 197 188 184 187 188 186 187 188 191 193 190 188 191 194 197 198 199 201 204 197 197 202 203 211 216 196 210 205 207 204 203 198 215 209
234 233 224 195 194 256 244 243 235 215 214 220 210 204 203 190 179 179 184 189 190 189 190 192 193 192 196 195 196 198 196 200 201 205 199 200 201 205 208 216 209 207 205 208 210 211 221 207 196
226 233 231 227 222 230 248 231 208 189 203 209 212 209 205 195 189 183 186 190 192 192 194 195 196 195 200 196 190 191 191 200 202 205 205 207 206 209 216 210 215 211 213 205 210 206 213 215 206
222 224 239 239 244 220 237 249 193 196 203 205 202 201 200 195 193 189 189 190 194 194 193 197 194 195 197 193 194 194 196 201 207 206 204 205 211 214 213 213 214 217 218 208 211 207 214 219 217
227 204 224 233 243 252 222 256 206 184 221 204 196 199 199 192 191 189 190 191 194 193 192 193 193 196 195 196 195 199 205 209 207 209 208 210 210 216 216 215 214 214 220 214 219 207 219 216 225
196 186 200 227 236 237 228 248 237 189 220 207 173 183 188 185 181 179 182 182 185 188 188 188 190 195 197 198 202 206 210 208 207 208 209 210 209 213 215 215 212 214 218 212 213 213 214 226 231
203 203 203 206 216 227 188 236 247 98 133 278 210 170 170 171 170 171 171 174 177 182 182 188 191 192 194 199 205 212 215 211 212 213 212 212 211 210 210 213 211 213 212 211 210 210 220 216 218
204 215 226 225 220 194 178 228 170 116 110 162 178 158 160 164 158 162 164 169 173 175 177 183 186 190 194 201 206 211 214 213 214 214 213 214 216 214 206 209 211 211 209 210 207 214 211 211 215
200 218 236 253 252 240 196 191 176 164 167 161 159 153 149 151 155 158 156 162 165 170 174 180 183 189 194 201 203 206 208 213 215 212 211 213 214 211 206 206 208 209 209 210 207 215 214 208 212
223 210 216 236 230 232 209 212 205 176 171 152 148 151 143 149 152 150 151 150 150 158 165 176 184 193 197 200 206 202 206 208 210 211 208 207 212 213 206 204 204 206 205 205 208 210 210 211 213
195 203 213 227 243 250 225 183 112 158 151 150 139 138 140 148 147 145 148 145 148 156 161 169 176 188 196 200 204 204 201 200 201 204 204 203 206 204 203 204 202 202 204 204 206 214 206 211 213
206 207 207 218 218 245 266 127 97 122 132 125 119 120 126 137 143 147 144 144 153 160 166 171 178 188 195 193 196 198 196 190 194 198 199 200 200 199 198 199 199 203 204 202 205 214 210 210 212